Location: Baia Mare
(47.6567°N, 23.5850°E)
Time: 11:40:07
(UTC+02:00)

ISS - Pass Details

Date: 01 February 2019
Orbit: 404 x 407 km, 51.6° (Epoch: 16 January)

Event Time Altitude Azimuth Distance (km) Brightness Sun altitude
Rises 19:49:11 0° 291° (WNW) 2,328 1.2 -24.2°
Reaches altitude 10° 19:51:18 10° 296° (WNW) 1,467 -0.1 -24.6°
Enters shadow 19:52:59 27° 308° (NW) 830 -1.8 -24.8°
